Home   Weather   New Zealand   Auckland   Past weeks
Flag for New Zealand

Past Weather in Auckland, New Zealand — Yesterday and Last 2 Weeks

Currently: 64 °F. Passing clouds. (Weather station: Auckland Airport, New Zealand). See more current weather

Past Weather in Auckland — Graph

°F

Auckland Temperature Yesterday

Maximum temperature yesterday: 66 °F (at 9:00 am)
Minimum temperature yesterday: 55 °F (at 10:00 pm)
Average temperature yesterday: 60 °F

High & Low Weather Summary for the Past Weeks

 TemperatureHumidityPressure
High75 °F (Apr 12, 2:30 pm)100% (Apr 1, 2:30 am)30.24 "Hg (Apr 1, 2:30 am)
Low54 °F (Apr 2, 7:30 am)50% (Apr 3, 5:00 pm)29.50 "Hg (Apr 14, 4:30 pm)
Average65 °F82%29.94 "Hg
* Reported Mar 31 6:00 pm — Apr 15 5:00 pm, Auckland. Weather by CustomWeather, © 2021

Note: Actual official high and low records may vary slightly from our data, if they occured in-between our weather recording intervals... More about our weather records

Auckland Weather History for the Previous 24 Hours

Scroll right to see more
 ConditionsComfort  
Time TempWeatherWind HumidityBarometerVisibility
5:00 pm
Thu, Apr 15
64 °FScattered clouds.17 mph68%29.80 "HgN/A
4:30 pm64 °FPassing clouds.16 mph78%29.80 "HgN/A
4:00 pm64 °FScattered clouds.15 mph78%29.80 "HgN/A
3:30 pm66 °FScattered clouds.15 mph73%29.80 "HgN/A
3:00 pm64 °FCloudy.13 mph78%29.80 "HgN/A
2:30 pm63 °FDrizzle. Mostly cloudy.18 mph83%29.80 "Hg6 mi
2:00 pm66 °FPartly sunny.17 mph68%29.80 "HgN/A
1:30 pm68 °FMild.16 mph60%29.80 "HgN/A
1:00 pm68 °FMild.16 mph64%29.80 "HgN/A
12:30 pm66 °FScattered clouds.15 mph64%29.80 "HgN/A
12:00 pm66 °FPassing clouds.13 mph68%29.83 "HgN/A
11:30 am66 °FPassing clouds.15 mph68%29.83 "HgN/A
11:00 am64 °FScattered clouds.7 mph78%29.83 "HgN/A
10:30 am64 °FMild.8 mph83%29.83 "HgN/A
10:00 am63 °FLight rain. Broken clouds.9 mph83%29.83 "HgN/A
9:30 am64 °FPartly sunny.9 mph78%29.83 "HgN/A
9:00 am63 °FBroken clouds.12 mph83%29.83 "HgN/A
8:30 am63 °FBroken clouds.1 mph77%29.83 "HgN/A
7:30 am59 °FBroken clouds.1 mph88%29.83 "HgN/A
7:00 am57 °FScattered clouds.2 mph88%29.83 "HgN/A
6:30 am57 °FCool.3 mph94%29.80 "HgN/A
6:00 am59 °FPassing clouds.3 mph82%29.80 "HgN/A
5:30 am55 °FPassing clouds.1 mph94%29.80 "HgN/A
5:00 am57 °FLight rain. Passing clouds.2 mph94%29.77 "HgN/A
4:30 am57 °FPassing clouds.3 mph88%29.77 "HgN/A
4:00 am57 °FPassing clouds.3 mph88%29.77 "HgN/A
3:30 am57 °FCool.6 mph88%29.77 "HgN/A
3:00 am57 °FCool.6 mph88%29.77 "HgN/A
2:30 am55 °FCool.3 mph100%29.77 "HgN/A
2:00 am55 °FPassing clouds.2 mph94%29.77 "HgN/A
1:30 am55 °FPassing clouds.2 mph100%29.77 "HgN/A
1:00 am55 °FCool.2 mph94%29.77 "HgN/A
12:30 am57 °FCool.5 mph94%29.74 "HgN/A
12:00 am59 °FCool.7 mph88%29.74 "HgN/A
11:30 pm
Wed, Apr 14
59 °FCool.7 mph82%29.74 "HgN/A
11:00 pm57 °FCool.10 mph88%29.74 "HgN/A
10:00 pm55 °FCool.8 mph94%29.71 "HgN/A
9:30 pm57 °FCool.13 mph88%29.68 "HgN/A
9:00 pm57 °FCool.10 mph94%29.68 "HgN/A
8:30 pm57 °FPassing clouds.12 mph94%29.65 "HgN/A
7:30 pm59 °FPassing clouds.12 mph94%29.59 "HgN/A
7:00 pm61 °FMostly cloudy.7 mph94%29.59 "HgN/A
6:30 pm61 °FLight rain. Partly cloudy.6 mph83%29.56 "HgN/A
6:00 pm61 °FPassing clouds.5 mph83%29.53 "HgN/A
Weather by CustomWeather, © 2021

See weather overview